Regional Weather Roundup
Issued by NWS Bismarck, ND

Home | Current Version | Previous Version | Text Only | Print | Product List | Glossary On
Versions: 1 2 3 4 5 6 7 8 9 10 11 12 13 14 15 16 17 18 19 20 21 22 23 24 25 26 27 28 29 30 31 32 33 34 35 36 37 38 39 40 41 42 43 44 45 46 47 48 49 50
000
ASUS43 KBIS 180502
RWRBIS

NWR BROADCAST TEXT
NATIONAL WEATHER SERVICE BISMARCK ND
1200 AM CDT WED OCT 18 2017

NOTE: "FAIR" INDICATES FEW OR NO CLOUDS BELOW 12,000 FEET WITH NO
SIGNIFICANT WEATHER AND/OR OBSTRUCTIONS TO VISIBILITY.


CITY           SKY/WX    TMP DP  RH WIND       PRES   REMARKS
WILLISTON      CLOUDY    60  27  28 SW12      29.49S
MINOT          CLOUDY    65  26  23 SW16G24   29.48F
MINOT AFB      CLOUDY    65  26  23 SW21      29.45F
BISMARCK       CLOUDY    63  25  23 SW10      29.62F
DICKINSON      PTCLDY    56  25  30 S15       29.61F
GARRISON         N/A     62  28  27 SW16      29.55F
HETTINGER ARPT PTCLDY    59  24  26 SW13      29.68F
JAMESTOWN      CLOUDY    52  36  54 S8        29.64F
CARRINGTON     FAIR      61  36  39 SW17G24   29.61F
HAZEN          FAIR      59  23  25 SW12      29.58F
LINTON         FAIR      57  36  44 S15       29.68F
RUGBY          FAIR      57  28  33 S14       29.50F
STANLEY        FAIR      63  25  23 SW16      29.51F
TIOGA          FAIR      61  25  25 SW20G26   29.49S
WATFORD CITY   FAIR      68  23  18 SW17      29.51S
$$

CITY           SKY/WX    TMP DP  RH WIND       PRES   REMARKS
GRAND FORKS    CLOUDY    53  37  54 S12       29.58F
GRAND FORKS AF CLOUDY    61  33  35 SW14G21   29.58F
DEVILS LAKE    CLOUDY    58  34  40 S18       29.55F
FARGO          CLEAR     55  41  59 S12       29.67F
CANDO          FAIR      55  28  35 S10       29.54S
CAVALIER       FAIR      52  34  50 S9        29.50F
GRAFTON        FAIR      54  34  47 S13       29.56F
GWINNER        CLEAR     55  41  58 S12       29.70F
LANGDON        FAIR      54  32  43 SW16G22   29.52F
ROLLA          FAIR      52  27  37 SW10      29.51F
WALHALLA       FAIR     N/A N/A N/A SW13G21   29.49F
$$

CITY           SKY/WX    TMP DP  RH WIND       PRES   REMARKS
ABERDEEN       CLEAR     53  42  66 S13       29.73F
MOBRIDGE       CLOUDY    53  42  66 SE10      29.68F
BUFFALO          N/A     56  27  32 S9        29.65F
RAPID CITY     CLEAR     47  26  44 W3        29.80F
GLASGOW        PTCLDY    67  24  19 W25G38    29.58R
SIDNEY         CLOUDY    62  26  25 SW15      29.53S
WOLF POINT     CLOUDY    69  25  19 W21G29    29.56R
GLENDIVE       CLOUDY    61  25  25 SW15      29.60R
MILES CITY     CLOUDY    60  26  27 S12       29.66S
BAKER          CLOUDY    65  18  16 SW13      29.67F
$$

CITY           SKY/WX    TMP DP  RH WIND       PRES   REMARKS
BILLINGS       PTCLDY    60  21  22 SW13      29.73F
GREAT FALLS    CLOUDY    59  26  28 W29G48    29.77R
$$





USA.gov is the U.S. government's official web portal to all federal, state and local government web resources and services.